This is the latest recevied weather packets stored in our database for station/object KF6ILA. If no packets are shown the sender has not sent any weather packets the latest 10 day(s).
| Time | Temp. | Humidity | Pressure | Rain* | Wind** | Luminosity | Snow |
|---|---|---|---|---|---|---|---|
| 1787987609 | 22.78° C | 52% | 1016.6 hPa | 0 mm | - | 0 W/m² | - |
| 1787987016 | 22.78° C | 51% | 1016.5 hPa | 0 mm | - | 0 W/m² | - |
| 1787986719 | 23.33° C | 51% | 1016.5 hPa | 0 mm | - | 0 W/m² | - |
| 1787986422 | 23.33° C | 50% | 1016.5 hPa | 0 mm | - | 0 W/m² | - |
| 1787985828 | 23.33° C | 50% | 1017.3 hPa | 0 mm | - | 0 W/m² | - |
| 1787985531 | 23.33° C | 50% | 1017.3 hPa | 0 mm | - | 0 W/m² | - |
| 1787985234 | 23.33° C | 50% | 1017.3 hPa | 0 mm | - | 0 W/m² | - |
| 1787984936 | 23.89° C | 50% | 1017.3 hPa | 0 mm | - | 0 W/m² | - |
| 1787984639 | 23.89° C | 50% | 1017.2 hPa | 0 mm | - | 0 W/m² | - |
| 1787984343 | 23.89° C | 49% | 1017.2 hPa | 0 mm | - | 0 W/m² | - |
| 1787984172 | 23.89° C | 52% | 1017.3 hPa | 0 mm | - | 0 W/m² | - |
| 1787984172 | 23.33° C | 53% | 1017.3 hPa | 0 mm | - | 0 W/m² | - |
| 1787984172 | 23.89° C | 49% | 1017.1 hPa | 0 mm | - | 0 W/m² | - |
| 1787984172 | 24.44° C | 47% | 1017 hPa | 0 mm | - | 0 W/m² | - |
| 1787984172 | 23.89° C | 47% | 1017.1 hPa | 0 mm | - | 0 W/m² | - |
| 1787984172 | 23.89° C | 48% | 1017.2 hPa | 0 mm | - | 0 W/m² | - |
| 1787984045 | 23.89° C | 49% | 1017.3 hPa | 0 mm | - | 0 W/m² | - |
| 1787983154 | 23.89° C | 48% | 1017.2 hPa | 0 mm | - | 0 W/m² | - |
| 1787982858 | 23.89° C | 47% | 1017.1 hPa | 0 mm | - | 0 W/m² | - |
| 1787982561 | 24.44° C | 47% | 1017 hPa | 0 mm | - | 0 W/m² | - |
| 1787982264 | 23.89° C | 47% | 1017.1 hPa | 0 mm | - | 0 W/m² | - |
| 1787981967 | 23.89° C | 48% | 1017.1 hPa | 0 mm | - | 0 W/m² | - |
| 1787981669 | 23.89° C | 48% | 1017.1 hPa | 0 mm | - | 0 W/m² | - |
| 1787981076 | 23.89° C | 49% | 1017.1 hPa | 0 mm | - | 0 W/m² | - |
| 1787980482 | 23.89° C | 52% | 1017.3 hPa | 0 mm | - | 0 W/m² | - |
* Rain latest hour (hover to see other rain measurements)
** Current wind speed in m/s (hover to see current wind gust speed)